Погода в Макаракском

Россия / Кемеровская область (Кузбасс)     55°35′49″N   88°02′49″E
темп.,
°C
ветер,
м/с
пор.,
м/с
влажн.,
%
обл.,
%
осадки,
мм/ч
давл.,
гПа
погр.,
м
27 января, чт
чт2701:00−12ююз2892100 0.2 1030350
04:00−14юз389395 0.0 1031294
07:00−13юз399294 0.1 1033406
10:00−15ю289337 0.0 1035247
13:00−11ююз4985100 0.1 10341026
16:00−12юз388588 0.0 1036888
19:00−19ююв229933 0.0 103812
22:00−18ююв239865 0.0 103936
28 января, пт
пт2801:00−20ююв229973 0.0 103931
04:00−21ююв229968 0.0 103932
07:00−20ююв239888 0.0 103845
10:00−19ююв249732 0.0 103864
13:00−11ююз3783100 0.0 1035664
16:00−11ююз268732 0.1 1034610
19:00−20ююв2210037 0.1 103613
22:00−17ююв2497100 0.0 103568
29 января, сб
сб2901:00−18ююв239812 0.0 103540
04:00−20ююв239919 0.0 103537
07:00−20ююв2498100 0.0 103538
10:00−16ю2394100 0.0 103460
13:00−10ю2383100 0.0 1032269
16:00−8юз1284100 0.0 1032388
19:00−16ю119828 0.0 10349
22:00−18ююв229916 0.0 103517
30 января, вс
вс3001:00−19ююв229722 0.0 103520
04:00−19ююв22955 0.0 103516
07:00−18ююв229264 0.0 103416
10:00−16ююв218845 0.0 103323
13:00−7ююв01715 0.0 1030173
16:00−7ссв11845 0.0 103071
19:00−16юв119735 0.0 10319
22:00−17ююв229821 0.0 103212
31 января, пн
пн3101:00−17ююв229716 0.0 103114
04:00−18ююв22965 0.0 103114
07:00−18ю22945 0.0 103115
10:00−16ю22885 0.0 103230
13:00−6юз11701 0.0 1030168
16:00−5сз118355 0.0 103075
19:00−13ююв11955 0.0 10339
22:00−15ююв229666 0.0 103312